Location: Bakhuizen
(52.8696°N, 5.4575°E)
Time: 03:38:36
(UTC+00:00)

NOSS 3-3 (A) - Pass Details

Date: 11 May 2021
Orbit: 810 x 1402 km, 63.4° (Epoch: 06 June)

Event Time Altitude Azimuth Distance (km) Brightness Sun altitude
Rises 21:21:41 0° 230° (SW) 3,436 6.8 -13.4°
Reaches altitude 10° 21:24:02 10° 231° (SW) 2,554 6.1 -13.6°
Maximum altitude 21:29:59 80° 319° (NW) 996 4.1 -14.1°
Drops below altitude 10° 21:36:53 10° 47° (NE) 2,948 6.7 -14.6°
Sets 21:39:46 0° 49° (NE) 4,002 7.4 -14.8°
